Relatos de Meteoros

29 jan 2020 - 29 fev 2020
Relatos encontrados: 2059  nos últimos 30 dias  Página 34 / 42
IDData & Hora UniversalData & Hora LocalPaísCidadeEstadoDuração.Magnitude.Atraso SonoroSom simultâneoFragmentação.ObservadorNível de Experiência
Evento 630-2020
630o03/02/2020 23:39 UT03/02/2020 23:39 GMTGB LiddingtonEngland≈1,5s -14---OwenC 3
630p03/02/2020 23:39 UT03/02/2020 23:39 GMTGB England≈3,5s -13---MichaelR 1
630q03/02/2020 23:39 UT03/02/2020 23:39 GMTGB SilebyEngland≈3,5s -10---MeganF 1
630r03/02/2020 23:38 UT03/02/2020 23:38 GMTGB England≈3,5s -17???TylerE 1
630s03/02/2020 23:38 UT03/02/2020 23:38 GMTGB AinthorpeEngland≈3,5s -18---BobS 1
630t03/02/2020 23:37 UT03/02/2020 23:37 GMTGB SlaleyEngland≈1,5s 0--?ChrisO 1
630u03/02/2020 23:35 UT03/02/2020 23:35 GMTGB England≈3,5s -13---PETERH 1
630v03/02/2020 23:35 UT03/02/2020 23:35 GMTGB England≈3,5s -14--HamishH 4
630w03/02/2020 23:35 UT03/02/2020 23:35 GMTGB Northern Ireland≈1,5s -11---JamesG 3
630x03/02/2020 23:35 UT03/02/2020 23:35 GMTGB RedcarEngland≈3,5s -13---MarcR 1
630y03/02/2020 23:35 UT03/02/2020 23:35 GMTGB SouthwickEngland≈3,5s -13---craigR 2
630z03/02/2020 23:35 UT03/02/2020 23:35 GMTGB KeyinghamEngland≈7,5s -11---Daniel E 4
Evento 629-2020
629a05/02/2020 03:25 UT04/02/2020 20:25 MSTUS TucsonAZ≈3,5s -20--Thomas F 4
629aa05/02/2020 03:01 UT04/02/2020 19:01 PSTUS CypressCA≈3,5s -12??NicholasH 3
629ab05/02/2020 03:02 UT04/02/2020 19:02 PSTUS CarpinteriaCA≈3,5s -12--WilliamW 1
629ac05/02/2020 03:02 UT04/02/2020 20:02 MSTUS TempeAZ≈3,5s -22??boW 3
629ad05/02/2020 03:07 UT04/02/2020 19:07 PSTUS Las VegasNV≈3,5s -12-?KassyS 3
629ae05/02/2020 03:07 UT04/02/2020 20:07 MSTUS MaricopaAZ≈3,5s -15--RandyC 4
629af05/02/2020 03:01 UT04/02/2020 20:01 MSTUS YarnellAZ<1s -20---MarshaL 3
629ag05/02/2020 03:15 UT04/02/2020 19:15 PSTUS Los AngelesCA≈3,5s -12--AaronP 1
629b05/02/2020 03:10 UT04/02/2020 20:10 MSTUS PhoenixAZ≈7,5s -13???Cheryl GeorgetteA 1
629c05/02/2020 03:08 UT04/02/2020 20:08 MSTUS TucsonAZ≈3,5s -9--MikeK 3
629d05/02/2020 03:07 UT04/02/2020 20:07 MSTMX Puerto PeñascoSonora≈3,5s -9--AlexM 3
629e05/02/2020 03:05 UT04/02/2020 19:05 PSTUS Las VegasNV≈3,5s -7---RafaelM 2
629f05/02/2020 03:03 UT04/02/2020 20:03 MSTUS AjoAZ≈3,5s -18---SheilaM 2
629g05/02/2020 03:01 UT04/02/2020 20:01 MSTUS PhoenixAZ≈3,5s -9--Paul C 3
629h05/02/2020 03:01 UT04/02/2020 20:01 MSTUS CortezCO≈3,5s -13--?JessieB 2
629i05/02/2020 03:01 UT04/02/2020 20:01 MSTUS GilbertAZ≈7,5s -15--?RachelS 1
629j05/02/2020 03:01 UT04/02/2020 19:01 PSTUS PasadenaCA≈1,5s -12---JohnL 3
629k05/02/2020 03:01 UT04/02/2020 20:01 MSTUS Happy JackAZ<1s -17---PollyH 3
629l05/02/2020 03:00 UT04/02/2020 19:00 PSTUS Las VegasNV≈3,5s -9--ShaneS 1
629m05/02/2020 03:00 UT04/02/2020 20:00 MSTUS CoolidgeAZ≈1,5s -19---Lorraine N 1
629n05/02/2020 03:00 UT04/02/2020 20:00 MSTUS Cedar CityUT≈7,5s -15?--Julie H 3
629o05/02/2020 03:00 UT04/02/2020 19:00 PSTUS San DiegoCA≈3,5s -6--?EdT 3
629p05/02/2020 03:00 UT04/02/2020 20:00 MSTUS TempeAZ≈1,5s -12--RobW 2
629q05/02/2020 02:59 UT04/02/2020 18:59 PSTUS Las VegasNV≈7,5s -5??EnzoV 3
629r05/02/2020 02:57 UT04/02/2020 18:57 PSTUS ChinoCA≈7,5s -9--AngelaA 3
629s05/02/2020 02:55 UT04/02/2020 19:55 MSTUS TucsonAZ≈7,5s 0---DianeC 1
629t05/02/2020 02:30 UT04/02/2020 19:30 MSTUS PhoenixAZ≈1,5s -15??-AlanL 1
629u05/02/2020 03:04 UT04/02/2020 20:04 MSTUS St. GeorgeUT≈3,5s -11???KyleE 2
629v05/02/2020 03:02 UT04/02/2020 20:02 MSTUS SaffordAZ≈3,5s -5---RainB 3
629w05/02/2020 03:00 UT04/02/2020 20:00 MSTUS PhoenixAZ≈1,5s -8--JeriM 1
629x05/02/2020 03:07 UT04/02/2020 20:07 MSTUS TucsonAZ≈7,5s -9??JacobR 2
629y05/02/2020 03:11 UT04/02/2020 20:11 MSTUS TucsonAZ? -7??EliotH 4
629z05/02/2020 03:04 UT04/02/2020 20:04 MSTUS SomertonAZ≈3,5s -10--Gregory PB 1
Evento 628-2020
628a02/02/2020 10:45 UT02/02/2020 04:45 CSTUS OneontaAL≈1,5s -7---jeffN 4
Evento 627-2020
627a03/02/2020 20:01 UT03/02/2020 20:01 GMTGB England≈1,5s -13---GeoffT 1
Evento 626-2020
626a03/02/2020 12:49 UT03/02/2020 06:49 CSTUS MN≈3,5s -16--?MattK 2
Evento 625-2020
625a03/02/2020 11:50 UT03/02/2020 04:50 MSTUS Santa FeNM≈7,5s -6??-KirstenB 3
Evento 624-2020
624a03/02/2020 10:50 UT03/02/2020 05:50 ESTUS AnnapolisMD? -23---JeffreyN 1